STARLINK-1052 (44739 NORAD) Tracking and Keplerian Element Data

This shows tracking and keplerian element data for the satellite.

Feedback or suggestion? Click here.




ElementValue
Catalog44739
NameSTARLINK-1052
Epoch Orbit1141
Epoch Day23.25001157
Epoch Year2020
RAAN172.2796
Inclination53.0046
Eccentricity0.0001413
Argument of Perigee79.9406
Mean Anonmoly121.9693
Mean Motion15.31812943
Decay Rate-0.00054813
L11 44739U 19074AC 20023.25001157 -.00054813 00000-0 -17610-2 0 9996
L22 44739 53.0046 172.2796 0001413 79.9406 121.9693 15.31812943 11410

Live tracking and technical data element details for STARLINK-1052 (NORAD 44739). STARLINK-1052 can be tracked NOW for your location showing map with azimuth and elevation plus other details from your city location.

Track the satellite on the map from your city or location and see movement details for azimuth, elevation, latitude, longitude, range, height, and movement on the map or in text.







IsCatalogInMostPopularTable: catalog: 44739, numindb: 10
Update: records affected: 1



GetName: 44739 STARLINK-1052

Hit Count: updated at: Fri, 24 Jan 2020 13:27:15 GMT